Location: Coleto Creek Park and Reservoir
(28.7196°N, 97.1740°W)
Time: 01:43:12
(UTC-05:00)

Hubble Space Telescope - Visible Passes

Search period start: 29 September 2016 00:00
Search period end: 09 October 2016 00:00
Orbit: 539 x 542 km, 28.5° (Epoch: 28 September)

Date Brightness Start Highest point End Pass type
(mag) Time Alt. Az. Time Alt. Az. Time Alt. Az.
29 Sep 2.6 05:50:07 18° S 05:50:07 18° S 05:52:11 10° SSE visible
30 Sep 3.3 05:41:18 12° S 05:41:18 12° S 05:41:45 10° SSE visible
01 Oct 3.3 20:52:03 10° S 20:52:20 11° S 20:52:20 11° S visible
02 Oct 2.7 20:41:32 10° SSW 20:43:27 17° S 20:43:27 17° S visible
03 Oct 2.2 20:31:15 10° SSW 20:34:30 24° SSE 20:34:30 24° SSE visible
04 Oct 1.8 20:21:06 10° SW 20:24:43 29° SSE 20:25:29 27° SE visible
05 Oct 1.6 20:11:02 10° SW 20:14:51 36° SSE 20:16:23 27° ESE visible
06 Oct 1.3 20:01:03 10° SW 20:05:00 44° SSE 20:07:14 23° ESE visible
06 Oct 3.7 21:42:00 10° W 21:42:37 14° W 21:42:37 14° W visible
07 Oct 1.1 19:51:08 10° WSW 19:55:10 53° SSE 19:58:02 18° E visible
07 Oct 3.4 21:32:12 10° W 21:33:25 19° W 21:33:25 19° W visible
08 Oct 0.9 19:41:15 10° WSW 19:45:20 63° SSE 19:48:47 14° E visible
08 Oct 3.0 21:22:24 10° W 21:24:10 24° W 21:24:10 24° W visible
